TimeMST,TemperatureF,Dew PointF,Humidity,Sea Level PressureIn,VisibilityMPH,Wind Direction,Wind SpeedMPH,Gust SpeedMPH,PrecipitationIn,Events,Conditions,WindDirDegrees,DateUTC
12:53 AM,21.9,12.9,68,29.99,10.0,WSW,3.5,-,N/A,,Clear,250,2013-02-04 07:53:00
1:53 AM,23.0,14.0,68,29.98,10.0,West,6.9,-,N/A,,Clear,280,2013-02-04 08:53:00
3:53 AM,19.9,12.9,74,29.98,10.0,NW,3.5,-,N/A,,Clear,310,2013-02-04 10:53:00
4:53 AM,19.0,12.9,77,29.99,10.0,North,3.5,-,N/A,,Clear,350,2013-02-04 11:53:00
5:53 AM,17.1,12.0,81,29.99,10.0,Calm,Calm,-,N/A,,Clear,0,2013-02-04 12:53:00
6:53 AM,19.0,12.9,77,29.99,10.0,Calm,Calm,-,N/A,,Clear,0,2013-02-04 13:53:00
7:53 AM,19.9,14.0,78,29.99,10.0,NE,4.6,-,N/A,,Clear,40,2013-02-04 14:53:00
8:53 AM,28.9,17.1,61,29.96,10.0,NW,3.5,-,N/A,,Clear,320,2013-02-04 15:53:00
9:53 AM,42.1,16.0,35,29.92,10.0,WNW,11.5,-,N/A,,Clear,300,2013-02-04 16:53:00
10:53 AM,48.0,12.9,24,29.90,10.0,West,19.6,26.5,N/A,,Partly Cloudy,280,2013-02-04 17:53:00
11:53 AM,50.0,15.1,25,29.88,10.0,WNW,17.3,29.9,N/A,,Clear,290,2013-02-04 18:53:00
12:53 PM,52.0,14.0,22,29.86,10.0,WNW,18.4,25.3,N/A,,Clear,290,2013-02-04 19:53:00
1:53 PM,52.0,15.1,23,29.83,10.0,WNW,17.3,23.0,N/A,,Clear,290,2013-02-04 20:53:00
2:53 PM,53.1,16.0,23,29.83,10.0,West,21.9,28.8,N/A,,Clear,260,2013-02-04 21:53:00
3:53 PM,50.0,17.1,27,29.86,10.0,West,17.3,26.5,N/A,,Clear,270,2013-02-04 22:53:00
4:53 PM,46.9,18.0,32,29.88,10.0,West,15.0,-,N/A,,Clear,270,2013-02-04 23:53:00
5:53 PM,45.0,19.0,36,29.90,10.0,West,13.8,-,N/A,,Clear,270,2013-02-05 00:53:00
6:53 PM,42.1,19.0,40,29.91,10.0,West,9.2,-,N/A,,Clear,270,2013-02-05 01:53:00
7:53 PM,39.9,19.9,45,29.92,10.0,NW,6.9,-,N/A,,Clear,310,2013-02-05 02:53:00
8:53 PM,37.9,19.9,48,29.91,10.0,NW,5.8,-,N/A,,Clear,310,2013-02-05 03:53:00
9:53 PM,42.1,19.9,41,29.86,10.0,West,16.1,23.0,N/A,,Clear,280,2013-02-05 04:53:00
10:53 PM,41.0,19.9,43,29.85,10.0,West,13.8,-,N/A,,Clear,280,2013-02-05 05:53:00
11:53 PM,39.0,19.9,46,29.87,10.0,WNW,13.8,-,N/A,,Clear,290,2013-02-05 06:53:00